This is the latest recevied weather packets stored in our database for station/object 4S6DRJ-13. If no packets are shown the sender has not sent any weather packets the latest 10 day(s).
| Time | Temp. | Humidity | Pressure | Rain* | Wind** | Luminosity | Snow |
|---|---|---|---|---|---|---|---|
| 1787689685 | 26.67° C | 92% | 1010.4 hPa | 1.52 mm | 1.79 m/s, 236° | 0 W/m² | - |
| 1787689624 | 26.67° C | 92% | 1010.3 hPa | 1.52 mm | 2.68 m/s, 217° | 0 W/m² | - |
| 1787689563 | 26.67° C | 92% | 1010.3 hPa | 1.52 mm | 0.89 m/s, 189° | 0 W/m² | - |
| 1787689503 | 26.67° C | 92% | 1010.2 hPa | 1.52 mm | 1.79 m/s, 216° | 0 W/m² | - |
| 1787689441 | 26.67° C | 92% | 1010.3 hPa | 2.79 mm | 2.68 m/s, 187° | 0 W/m² | - |
| 1787689380 | 26.67° C | 92% | 1010.5 hPa | 2.79 mm | 2.24 m/s, 212° | 0 W/m² | - |
| 1787689336 | 26.67° C | 92% | 1010.3 hPa | 2.79 mm | 1.34 m/s, 262° | 0 W/m² | - |
| 1787689258 | 26.67° C | 92% | 1010.3 hPa | 2.79 mm | 0.89 m/s, 235° | 0 W/m² | - |
| 1787689197 | 26.67° C | 92% | 1010.3 hPa | 2.79 mm | 0.89 m/s, 187° | 0 W/m² | - |
| 1787689136 | 26.67° C | 92% | 1010.2 hPa | 2.79 mm | 0.89 m/s, 238° | 0 W/m² | - |
| 1787689075 | 26.67° C | 92% | 1010.3 hPa | 2.79 mm | 1.34 m/s, 230° | 0 W/m² | - |
| 1787689014 | 26.67° C | 92% | 1010.2 hPa | 2.79 mm | 1.34 m/s, 254° | 0 W/m² | - |
| 1787688953 | 26.67° C | 92% | 1010.3 hPa | 2.79 mm | 2.68 m/s, 241° | 0 W/m² | - |
| 1787688892 | 26.67° C | 92% | 1010.5 hPa | 2.79 mm | 1.34 m/s, 259° | 0 W/m² | - |
| 1787688831 | 26.67° C | 92% | 1010.3 hPa | 2.79 mm | 2.24 m/s, 242° | 0 W/m² | - |
| 1787688771 | 26.67° C | 92% | 1010.3 hPa | 2.79 mm | 3.13 m/s, 232° | 0 W/m² | - |
| 1787688708 | 26.67° C | 92% | 1010.4 hPa | 2.79 mm | 0.89 m/s, 19° | 0 W/m² | - |
| 1787688648 | 26.67° C | 92% | 1010.6 hPa | 2.79 mm | 2.68 m/s, 226° | 0 W/m² | - |
| 1787688587 | 26.67° C | 92% | 1010.6 hPa | 2.79 mm | 0.89 m/s, 213° | 0 W/m² | - |
| 1787688526 | 26.67° C | 92% | 1010.6 hPa | 2.79 mm | 1.79 m/s, 194° | 0 W/m² | - |
| 1787688465 | 26.67° C | 92% | 1010.5 hPa | 2.79 mm | 1.79 m/s, 220° | 0 W/m² | - |
| 1787688404 | 26.67° C | 92% | 1010.5 hPa | 2.79 mm | 0.45 m/s, 294° | 0 W/m² | - |
| 1787688343 | 26.67° C | 92% | 1010.5 hPa | 2.54 mm | 2.24 m/s, 209° | 0 W/m² | - |
| 1787688282 | 26.67° C | 92% | 1010.5 hPa | 2.54 mm | 2.68 m/s, 215° | 0 W/m² | - |
| 1787688221 | 26.67° C | 92% | 1010.6 hPa | 2.54 mm | 1.79 m/s, 328° | 0 W/m² | - |
* Rain latest hour (hover to see other rain measurements)
** Current wind speed in m/s (hover to see current wind gust speed)